TimeEST,TemperatureF,Dew PointF,Humidity,Sea Level PressureIn,VisibilityMPH,Wind Direction,Wind SpeedMPH,Gust SpeedMPH,PrecipitationIn,Events,Conditions,WindDirDegrees,DateUTC
12:17 AM,25.2,23.9,95,30.04,1.0,East,3.5,-,N/A,Snow,Snow,100,2013-12-09 05:17:00
12:38 AM,25.5,23.9,94,30.03,2.5,ESE,3.5,-,N/A,Snow,Light Snow,110,2013-12-09 05:38:00
12:57 AM,26.6,23.9,90,30.00,3.0,SE,8.1,-,N/A,Snow,Light Snow,130,2013-12-09 05:57:00
1:17 AM,25.9,23.9,92,29.98,2.5,Calm,Calm,-,N/A,Snow,Light Snow,0,2013-12-09 06:17:00
1:37 AM,25.5,23.7,93,29.96,2.5,East,3.5,-,N/A,Snow,Light Snow,90,2013-12-09 06:37:00
1:57 AM,25.5,23.7,93,29.95,1.8,East,4.6,-,N/A,Snow,Light Snow,90,2013-12-09 06:57:00
2:17 AM,25.5,23.7,93,29.94,1.8,East,3.5,-,N/A,Snow,Light Snow,100,2013-12-09 07:17:00
2:37 AM,25.5,23.9,94,29.93,1.8,Calm,Calm,-,N/A,Snow,Light Snow,0,2013-12-09 07:37:00
2:58 AM,25.7,23.9,93,29.92,1.8,East,3.5,-,N/A,Snow,Light Snow,80,2013-12-09 07:58:00
3:17 AM,25.7,24.4,95,29.91,1.5,Calm,Calm,-,N/A,Snow,Light Snow,0,2013-12-09 08:17:00
3:37 AM,25.7,24.6,96,29.90,1.2,Calm,Calm,-,N/A,Snow,Light Snow,0,2013-12-09 08:37:00
3:58 AM,25.7,24.4,95,29.87,1.8,NE,3.5,-,N/A,Snow,Light Snow,50,2013-12-09 08:58:00
4:17 AM,25.7,24.8,96,29.86,1.2,Calm,Calm,-,N/A,Snow,Light Snow,0,2013-12-09 09:17:00
4:37 AM,25.7,24.8,96,29.85,1.0,East,3.5,-,N/A,Snow,Snow,80,2013-12-09 09:37:00
4:58 AM,26.2,25.2,96,29.83,1.0,Calm,Calm,-,N/A,Snow,Snow,0,2013-12-09 09:58:00
5:17 AM,26.4,25.5,96,29.80,1.2,East,3.5,-,N/A,Snow,Light Snow,80,2013-12-09 10:17:00
5:37 AM,27.0,26.1,96,29.79,1.5,Calm,Calm,-,N/A,Snow,Light Snow,0,2013-12-09 10:37:00
5:58 AM,27.0,26.1,96,29.78,2.5,Calm,Calm,-,N/A,Snow,Light Snow,0,2013-12-09 10:58:00
6:17 AM,27.0,26.1,96,29.75,3.0,Calm,Calm,-,N/A,Snow,Light Snow,0,2013-12-09 11:17:00
6:38 AM,27.5,26.6,96,29.74,2.5,Calm,Calm,-,N/A,Snow,Light Snow,0,2013-12-09 11:38:00
6:57 AM,27.9,27.0,96,29.74,1.2,NE,3.5,-,N/A,Snow,Light Snow,40,2013-12-09 11:57:00
7:17 AM,27.9,26.6,95,29.72,1.8,ENE,3.5,-,N/A,Snow,Light Snow,60,2013-12-09 12:17:00
7:38 AM,27.9,26.6,95,29.70,1.0,NE,4.6,-,N/A,Snow,Snow,50,2013-12-09 12:38:00
7:57 AM,28.0,27.1,96,29.71,1.0,Calm,Calm,-,N/A,Snow,Snow,0,2013-12-09 12:57:00
8:17 AM,28.2,27.3,96,29.70,0.5,NE,3.5,-,N/A,Snow,Snow,50,2013-12-09 13:17:00
8:38 AM,28.0,27.0,96,29.70,0.2,Calm,Calm,-,N/A,Snow,Snow,0,2013-12-09 13:38:00
8:57 AM,27.9,27.0,96,29.70,0.8,NNE,3.5,-,N/A,Snow,Light Snow,20,2013-12-09 13:57:00
9:17 AM,28.4,27.1,95,29.69,0.5,Calm,Calm,-,N/A,Snow,Snow,0,2013-12-09 14:17:00
9:37 AM,28.8,26.8,92,29.69,2.5,Calm,Calm,-,N/A,Snow,Light Snow,0,2013-12-09 14:37:00
9:57 AM,28.9,26.6,91,29.68,3.0,NW,3.5,-,N/A,Snow,Light Snow,310,2013-12-09 14:57:00
10:18 AM,27.5,26.2,95,29.69,1.5,NNW,5.8,-,N/A,Snow,Light Snow,330,2013-12-09 15:18:00
10:37 AM,27.5,25.7,93,29.70,2.5,NNW,3.5,-,N/A,Snow,Light Snow,340,2013-12-09 15:37:00
10:57 AM,27.9,25.7,92,29.71,2.5,WNW,4.6,-,N/A,Snow,Light Snow,290,2013-12-09 15:57:00
11:18 AM,28.4,24.8,86,29.71,7.0,West,5.8,-,N/A,Snow,Light Snow,280,2013-12-09 16:18:00
11:37 AM,28.0,24.8,88,29.70,10.0,WSW,3.5,-,N/A,,Overcast,250,2013-12-09 16:37:00
11:57 AM,29.3,25.7,86,29.69,10.0,WSW,5.8,-,N/A,Snow,Light Snow,240,2013-12-09 16:57:00
12:18 PM,29.7,25.7,85,29.69,7.0,WSW,12.7,21.9,N/A,,Overcast,240,2013-12-09 17:18:00
12:37 PM,29.3,23.7,80,29.68,5.0,WSW,17.3,24.2,N/A,,Haze,250,2013-12-09 17:37:00
12:57 PM,28.4,22.1,77,29.68,5.0,West,12.7,31.1,N/A,Snow,Light Snow,260,2013-12-09 17:57:00
1:18 PM,28.0,21.2,76,29.68,7.0,WSW,10.4,21.9,N/A,Snow,Light Snow,250,2013-12-09 18:18:00
1:37 PM,27.9,20.1,73,29.67,10.0,West,6.9,-,N/A,,Mostly Cloudy,260,2013-12-09 18:37:00
1:57 PM,27.5,19.9,73,29.67,10.0,WSW,12.7,17.3,N/A,,Overcast,250,2013-12-09 18:57:00
2:17 PM,27.7,20.3,74,29.66,10.0,WSW,8.1,-,N/A,,Overcast,250,2013-12-09 19:17:00
2:37 PM,27.0,20.7,77,29.67,4.0,WSW,5.8,-,N/A,Snow,Light Snow,250,2013-12-09 19:37:00
2:58 PM,26.6,21.6,81,29.67,4.0,WSW,8.1,-,N/A,Snow,Light Snow,250,2013-12-09 19:58:00
3:17 PM,26.1,21.4,82,29.68,1.0,West,6.9,17.3,N/A,Snow,Light Snow,270,2013-12-09 20:17:00
3:38 PM,25.3,22.1,87,29.68,1.0,West,4.6,-,N/A,Snow,Light Snow,260,2013-12-09 20:38:00
3:57 PM,25.2,23.4,93,29.68,0.5,West,3.5,-,N/A,Snow,Light Snow,280,2013-12-09 20:57:00
4:17 PM,25.3,23.2,91,29.69,0.8,WSW,10.4,18.4,N/A,Snow,Light Snow,250,2013-12-09 21:17:00
4:38 PM,25.3,23.4,92,29.69,0.5,WSW,10.4,20.7,N/A,Snow,Snow,250,2013-12-09 21:38:00
4:57 PM,24.8,23.0,93,29.70,0.2,WSW,9.2,27.6,N/A,Snow,Heavy Snow,250,2013-12-09 21:57:00
5:17 PM,24.3,22.8,94,29.71,0.5,West,6.9,23.0,N/A,Snow,Snow,260,2013-12-09 22:17:00
5:38 PM,23.9,21.9,92,29.72,0.5,WSW,8.1,28.8,N/A,Snow,Snow,250,2013-12-09 22:38:00
5:57 PM,23.9,20.8,88,29.71,1.5,WSW,15.0,23.0,N/A,Snow,Light Snow,240,2013-12-09 22:57:00
6:17 PM,23.7,20.1,86,29.72,1.0,WSW,10.4,25.3,N/A,Snow,Light Snow,240,2013-12-09 23:17:00
6:38 PM,22.3,20.1,91,29.73,0.2,West,8.1,31.1,N/A,Snow,Heavy Snow,280,2013-12-09 23:38:00
6:57 PM,20.5,18.5,92,29.74,0.5,WNW,15.0,23.0,N/A,Snow,Heavy Snow,290,2013-12-09 23:57:00
7:17 PM,19.4,17.6,93,29.76,0.2,West,6.9,16.1,N/A,Snow,Heavy Snow,280,2013-12-10 00:17:00
7:37 PM,18.5,15.8,89,29.76,0.8,West,10.4,20.7,N/A,Snow,Snow,280,2013-12-10 00:37:00
7:57 PM,18.7,14.7,85,29.76,3.0,West,12.7,19.6,N/A,Snow,Light Snow,280,2013-12-10 00:57:00
8:17 PM,17.6,14.5,88,29.78,0.8,West,12.7,21.9,N/A,Snow,Light Snow,270,2013-12-10 01:17:00
8:37 PM,16.0,8.4,72,29.79,5.0,West,9.2,17.3,N/A,,Haze,270,2013-12-10 01:37:00
8:58 PM,14.9,6.3,69,29.80,7.0,West,11.5,20.7,N/A,,Clear,280,2013-12-10 01:58:00
9:17 PM,14.0,4.5,66,29.81,7.0,West,8.1,20.7,N/A,,Clear,280,2013-12-10 02:17:00
9:37 PM,13.6,3.9,65,29.82,10.0,West,8.1,-,N/A,,Clear,270,2013-12-10 02:37:00
9:58 PM,14.2,4.5,65,29.83,5.0,West,10.4,19.6,N/A,,Haze,280,2013-12-10 02:58:00
10:17 PM,12.7,2.3,63,29.84,5.0,West,10.4,21.9,N/A,Snow,Light Snow,280,2013-12-10 03:17:00
10:37 PM,11.8,2.3,66,29.85,5.0,West,10.4,24.2,N/A,,Haze,280,2013-12-10 03:37:00
10:58 PM,12.0,2.1,65,29.86,10.0,West,9.2,19.6,N/A,,Clear,260,2013-12-10 03:58:00
11:17 PM,11.3,2.3,67,29.86,10.0,West,9.2,19.6,N/A,,Clear,260,2013-12-10 04:17:00
11:37 PM,10.4,2.3,70,29.87,10.0,West,10.4,17.3,N/A,,Clear,260,2013-12-10 04:37:00
11:58 PM,10.0,2.3,71,29.88,10.0,West,8.1,-,N/A,,Clear,260,2013-12-10 04:58:00